This demonstration page uses our WeatherBlox Daily Observations layout. Learn more.

Left ArrowRight Arrow

39.01783, -85.05884

Hourly Observations for March 13, 2022

Temp ( °F °C ) Dew Point ( °F °C ) Humidity (%) Winds ( mph kmh ) Pressure ( in mb ) Visibility ( mi km ) Precip ( " mm )
12:52 am 00:52 Clear 18 -7.8 8 -13.3 65 65 SW 6 9 30.27 1025 10 16 0.00 0.00
1:52 am 01:52 Clear 18 -7.8 8 -13.3 65 65 SSW 6 9 30.26 1025 10 16 0.00 0.00
3:52 am 03:52 Clear 17 -8.3 10 -12.2 74 74 S 5 7 30.25 1024 10 16 0.00 0.00
4:52 am 04:52 Clear 19 -7.2 11 -11.7 71 71 S 9 15 30.24 1024 10 16 0.00 0.00
5:52 am 05:52 Mostly Cloudy 20 -6.7 11 -11.7 68 68 SSW 10 17 30.23 1024 10 16 0.00 0.00
6:52 am 06:52 Partly Cloudy 20 -6.7 12 -11.1 71 71 S 12 19 30.22 1023 10 16 0.00 0.00
7:52 am 07:52 Cloudy 21 -6.1 13 -10.6 71 71 SSW 16 26 30.20 1023 10 16 0.00 0.00
8:52 am 08:52 Cloudy 23 -5 14 -10 68 68 S 16 26 30.19 1022 10 16 0.00 0.00
9:52 am 09:52 Cloudy 25 -3.9 14 -10 63 63 S 16 26 30.17 1022 10 16 0.00 0.00
10:52 am 10:52 Mostly Sunny 30 -1.1 15 -9.4 54 54 SW 15 24 30.14 1021 10 16 0.00 0.00
11:52 am 11:52 Mostly Sunny 35 1.7 18 -7.8 50 50 SSW 23 37 30.14 1021 10 16 0.00 0.00
12:52 pm 12:52 Mostly Cloudy 39 3.9 19 -7.2 45 45 SSW 20 31 30.12 1020 10 16 0.00 0.00
1:52 pm 13:52 Mostly Cloudy 43 6.1 21 -6.1 42 42 SW 14 22 30.11 1020 10 16 0.00 0.00
2:52 pm 14:52 Partly Cloudy 46 7.8 22 -5.6 38 38 SW 18 30 30.09 1019 10 16 0.00 0.00
3:52 pm 15:52 Mostly Sunny 48 8.9 24 -4.4 39 39 SW 17 28 30.09 1019 10 16 0.00 0.00
4:52 pm 16:52 Sunny 50 10 25 -3.9 38 38 SW 15 24 30.09 1019 10 16 0.00 0.00
5:52 pm 17:52 Sunny 50 10 26 -3.3 39 39 WSW 16 26 30.11 1020 10 16 0.00 0.00
6:52 pm 18:52 Sunny 50 10 26 -3.3 39 39 SW 13 20 30.14 1021 10 16 0.00 0.00
7:52 pm 19:52 Clear 48 8.9 27 -2.8 44 44 SW 9 15 30.15 1021 10 16 0.00 0.00
8:52 pm 20:52 Clear 44 6.7 27 -2.8 51 51 SSW 9 15 30.17 1022 10 16 0.00 0.00
9:52 pm 21:52 Clear 44 6.7 28 -2.2 53 53 SSW 12 19 30.20 1023 10 16 0.00 0.00
10:52 pm 22:52 Clear 41 5 28 -2.2 60 60 S 10 17 30.22 1023 10 16 0.00 0.00
11:52 pm 23:52 Clear 39 3.9 27 -2.8 62 62 S 7 11 30.24 1024 10 16 0.00 0.00

Powered by AerisWeather